Wind_Speed
8 8 10 6 3 4 2 4 4 4 7 7 5 4 4 5 6 9 9 9 6 7 9 11 12 13 14 15 16 17 13 16 20 22 23 23 23 22 22 22 22 20 19 18
9 12 10 6 5 6 6 8 9 8 4 8 8 6 4 7 2 5 7 10 7 9 12 11 14 15 14 13 14 16 17 16 19 19 18 21 24 24 23 23 23 21 19 18
10 8 9 8 8 9 10 12 10 9 11 12 12 11 5 6 4 3 8 12 12 12 13 12 12 15 16 16 15 15 15 17 20 20 19 21 24 24 25 25 23 22 21 19
9 7 7 7 10 8 12 7 10 12 12 12 3 9 3 7 7 7 4 6 11 14 15 16 15 15 15 16 17 16 16 17 17 21 18 20 21 21 23 24 24 24 23 21
7 4 5 6 8 6 9 9 10 13 15 17 17 12 12 8 10 9 10 10 7 11 15 18 18 16 15 17 20 21 20 20 20 21 19 20 20 21 24 25 26 25 24 21
7 6 3 5 5 8 8 10 12 13 15 21 22 22 17 13 9 5 3 5 8 13 14 15 19 21 18 20 22 24 25 23 23 22 22 22 21 20 22 24 24 24 23 22
4 4 5 4 4 5 6 10 12 10 11 13 12 15 17 6 7 7 4 1 3 4 13 16 18 21 24 25 26 27 28 28 26 25 23 23 23 22 23 23 24 24 23 22
8 7 5 4 2 4 6 6 10 7 9 4 2 8 12 13 6 8 9 9 8 8 8 8 17 21 20 29 30 31 30 30 31 29 27 26 25 25 25 25 25 25 24 23
4 6 7 9 7 4 3 6 4 11 14 13 14 10 10 9 6 1 3 10 14 10 9 10 11 17 24 24 33 34 34 31 33 31 30 29 27 27 27 27 27 27 26 26
4 6 6 9 8 8 8 7 7 9 5 8 6 8 14 17 7 6 7 10 18 18 14 12 12 16 22 23 30 36 37 35 33 33 31 31 29 28 28 28 28 30 28 27
3 5 3 4 7 8 8 9 11 11 11 9 8 5 6 6 7 12 13 16 21 23 24 19 14 14 19 23 28 36 38 38 37 35 35 32 32 31 30 30 30 31 32 31
3 5 10 9 10 11 12 11 12 16 10 14 15 22 8 6 8 15 21 22 23 27 22 23 19 13 16 23 28 35 39 39 39 37 37 34 31 30 31 32 33 32 32 33
4 5 9 7 7 7 10 12 11 13 14 18 18 13 6 6 18 21 24 27 29 35 35 28 23 16 17 19 23 31 41 40 39 39 37 34 33 32 32 30 30 34 33 34
9 10 15 18 12 7 14 15 15 16 19 20 30 27 27 28 26 26 26 26 26 26 31 37 34 26 21 19 20 24 35 42 40 40 39 39 36 33 31 30 31 32 34 34
6 12 14 17 18 18 20 22 24 26 26 29 33 33 29 28 31 30 25 24 26 29 25 30 31 32 26 22 22 24 33 41 43 42 43 42 38 33 29 26 26 31 34 35
9 12 12 17 17 19 24 24 25 28 29 33 32 38 29 27 23 24 24 23 25 26 31 26 31 28 31 26 23 28 29 31 40 45 44 43 42 39 36 32 28 26 30 35
11 9 10 15 8 12 17 21 23 26 25 26 30 29 27 28 26 26 26 26 27 27 30 31 30 30 25 27 24 24 28 24 31 40 45 47 46 44 41 39 38 35 30 31
7 7 10 14 12 15 6 7 10 15 18 22 29 27 26 22 24 24 25 27 26 29 30 33 30 32 26 24 25 23 23 22 40 47 39 47 50 50 48 46 45 42 39 35
6 6 11 11 16 19 24 9 11 15 23 21 24 22 20 23 31 25 20 25 28 30 31 35 34 28 27 29 26 22 28 34 25 26 32 38 43 52 51 48 50 47 45 42
6 7 9 14 18 13 8 12 14 17 31 20 29 31 24 25 25 21 24 29 29 26 31 34 37 31 30 32 28 31 27 28 30 32 39 38 42 46 50 52 56 52 50 49
7 8 13 14 18 18 14 11 14 16 17 23 27 32 33 31 30 39 35 33 32 32 32 35 38 33 32 32 32 29 32 34 33 31 32 28 32 40 43 41 42 44 44 53
7 7 12 11 14 14 10 21 20 28 34 35 40 46 46 42 39 39 38 36 38 37 37 36 39 37 33 29 29 29 32 35 37 32 33 36 37 34 35 46 56 63 34 39
6 8 13 11 14 20 23 21 25 29 29 32 33 29 29 34 41 35 37 35 37 39 39 37 37 38 32 33 22 31 30 31 31 33 37 32 28 33 30 29 36 36 43 40
11 13 13 15 10 19 22 23 24 32 37 32 27 28 27 30 28 30 31 32 34 38 37 40 32 30 33 31 25 24 32 28 24 22 21 19 21 22 22 20 24 23 27 30
11 17 13 16 17 20 16 23 30 32 20 20 16 20 20 20 21 22 23 30 33 37 36 27 29 31 32 34 37 31 30 24 21 20 16 16 18 18 18 20 18 17 17 24
10 8 11 18 19 19 21 24 33 15 14 12 12 16 21 25 26 29 34 32 33 23 9 5 9 15 25 18 32 15 13 18 20 19 15 11 6 8 13 13 11 11 5 13
Wind_Direction
224 216 238 217 224 251 294 290 322 341 325 357 336 312 246 273 230 217 217 216 212 206 204 218 220 206 197 191 194 185 183 192 195 191 194 199 202 202 203 200 201 200 200 201
228 233 221 224 242 247 270 284 283 290 308 321 305 314 267 232 205 192 219 222 221 204 218 218 226 232 218 207 197 202 198 199 194 189 195 203 206 206 207 206 202 201 203 205
215 210 225 232 260 261 259 262 277 278 290 300 300 283 235 232 234 236 240 222 216 217 219 229 235 239 240 225 215 206 208 201 201 210 206 204 203 205 208 208 206 205 204 206
196 219 214 243 246 251 263 256 267 279 289 275 241 276 248 231 242 249 231 234 233 230 226 225 230 234 242 247 235 219 211 205 205 202 210 208 208 207 212 212 210 208 207 208
199 182 219 232 238 263 253 281 275 267 264 269 256 250 253 255 245 256 253 238 245 251 243 241 240 239 229 236 242 238 222 216 214 214 217 213 212 215 213 214 213 210 212 214
163 194 184 219 240 252 273 287 274 264 257 252 250 252 256 241 249 209 129 226 245 245 246 252 246 249 241 228 232 235 237 224 222 220 219 216 217 216 221 217 216 217 219 221
165 206 205 210 256 274 306 270 259 236 223 250 256 231 238 239 208 198 214 89 218 260 260 246 248 248 240 234 232 234 235 234 226 223 219 217 216 218 216 217 219 222 227 229
220 194 202 240 212 251 287 267 289 276 274 259 112 241 237 207 175 225 238 241 242 254 243 245 252 249 248 237 235 235 237 234 232 226 223 220 220 219 220 219 220 223 226 231
225 225 231 237 245 257 264 245 254 284 261 264 254 226 240 204 207 342 325 253 243 245 241 249 255 250 249 235 232 235 236 234 236 231 228 225 223 223 222 224 224 225 226 230
257 267 233 249 272 260 220 235 250 219 262 255 233 238 246 196 244 315 306 293 251 247 251 262 272 269 254 246 229 227 232 235 236 235 228 226 225 226 227 229 229 230 231 231
233 249 228 264 240 237 252 248 239 264 255 285 272 252 191 206 288 304 290 307 278 261 252 256 273 273 265 251 232 223 224 227 231 233 231 226 227 227 229 230 231 232 232 231
233 245 260 263 261 261 239 244 231 248 228 247 276 270 270 248 295 313 270 292 301 281 268 263 273 289 274 263 234 223 218 222 227 231 233 230 226 226 228 231 233 234 234 232
283 255 263 227 253 249 222 230 232 243 254 251 264 245 232 275 307 308 292 284 282 277 276 272 269 271 272 276 241 226 218 217 221 227 229 224 225 227 230 230 232 234 237 235
283 260 250 272 307 289 231 239 241 249 260 264 252 267 266 288 295 304 307 301 295 290 277 272 266 269 275 268 248 224 221 218 218 223 226 228 225 225 229 233 235 235 235 237
244 262 262 264 264 260 256 253 253 253 256 258 270 275 277 286 297 299 298 301 296 292 288 271 270 264 267 262 256 220 220 218 217 220 222 226 225 222 225 229 234 236 236 235
265 277 272 273 269 263 264 261 259 257 259 264 272 275 284 291 290 295 299 302 301 290 288 285 267 270 261 264 250 227 228 225 221 221 221 221 223 223 226 230 234 240 239 240
259 274 276 280 266 277 272 272 261 262 262 267 272 281 285 285 288 290 291 294 300 293 280 282 270 269 272 256 247 226 226 226 223 222 222 220 222 225 227 230 235 237 239 240
259 255 263 272 282 264 275 301 278 270 267 273 280 281 279 286 287 291 286 294 288 289 276 277 281 271 268 239 234 229 226 235 234 230 225 225 222 222 225 230 232 235 235 239
237 248 279 267 281 290 298 295 271 276 277 278 283 289 296 301 290 301 295 272 286 289 281 277 284 281 263 240 232 231 227 233 239 239 231 237 233 230 230 237 237 233 237 237
246 256 252 281 288 288 307 305 299 295 281 263 260 273 292 300 296 283 274 281 287 277 284 278 284 282 262 244 232 234 223 226 231 241 247 239 233 228 233 247 249 240 231 235
254 265 262 278 277 280 288 295 310 285 294 274 272 269 270 278 287 290 289 285 289 284 280 281 280 294 267 248 233 236 244 243 234 237 237 236 238 243 245 241 240 245 232 233
247 268 276 277 273 281 298 312 296 289 284 284 278 270 267 269 278 281 287 289 286 289 283 278 278 278 271 252 242 232 237 242 236 234 231 235 240 246 257 251 250 253 232 234
263 246 282 268 268 287 299 303 297 304 301 306 297 295 290 280 269 277 284 286 288 291 289 281 279 271 257 250 249 235 237 241 232 232 242 244 249 252 239 237 238 244 241 233
283 289 281 293 301 296 298 303 303 304 308 302 296 290 289 287 283 282 288 287 289 293 293 287 266 249 246 239 246 243 234 229 232 235 234 230 229 221 222 225 227 249 258 279
275 274 295 298 310 304 309 305 311 317 321 312 302 303 303 296 293 288 281 290 291 290 286 293 256 270 247 223 211 221 194 203 207 212 221 227 236 240 246 242 241 249 257 261
270 300 301 301 305 305 313 316 321 337 356 358 346 326 310 296 289 292 298 296 280 271 278 71 198 233 236 224 193 192 184 187 176 179 171 174 184 215 234 238 224 162 194 232
Height
3188 3192 3190 3191 3191 3191 3192 3193 3193 3194 3192 3192 3194 3194 3194 3191 3192 3194 3194 3195 3196 3197 3198 3199 3201 3202 3203 3204 3207 3209 3211 3213 3214 3217 3219 3222 3224 3227 3230 3232 3234 3238 3240 3242
3189 3189 3188 3189 3190 3192 3192 3192 3192 3193 3192 3192 3193 3193 3192 3192 3191 3192 3193 3194 3195 3196 3197 3198 3200 3201 3202 3204 3206 3208 3210 3212 3214 3217 3219 3221 3222 3225 3228 3231 3233 3236 3239 3242
3187 3187 3185 3188 3190 3191 3191 3191 3191 3192 3191 3190 3190 3189 3190 3190 3191 3191 3191 3193 3194 3195 3195 3196 3198 3200 3201 3202 3204 3206 3209 3210 3213 3215 3217 3218 3220 3223 3226 3229 3232 3235 3238 3240
3186 3184 3186 3187 3189 3189 3189 3188 3189 3190 3191 3189 3190 3186 3188 3190 3189 3190 3190 3190 3192 3193 3194 3194 3195 3197 3199 3202 3203 3205 3207 3209 3211 3213 3216 3217 3220 3223 3225 3228 3230 3233 3236 3238
3184 3185 3186 3187 3187 3186 3188 3186 3187 3188 3188 3188 3188 3189 3184 3187 3188 3189 3189 3190 3191 3192 3192 3192 3193 3194 3197 3199 3201 3203 3204 3206 3208 3211 3214 3216 3218 3220 3222 3225 3227 3230 3233 3236
3183 3183 3184 3185 3184 3184 3184 3185 3185 3184 3185 3181 3181 3182 3181 3182 3185 3186 3187 3189 3190 3190 3190 3189 3191 3192 3194 3195 3197 3199 3201 3203 3205 3207 3210 3213 3216 3218 3220 3223 3226 3229 3231 3234
3184 3184 3183 3184 3185 3184 3184 3184 3179 3176 3174 3171 3171 3174 3177 3181 3181 3181 3181 3183 3184 3186 3188 3187 3186 3187 3189 3191 3192 3194 3197 3200 3201 3204 3206 3210 3213 3215 3218 3221 3223 3226 3229 3231
3182 3183 3184 3182 3184 3184 3184 3184 3178 3170 3164 3165 3173 3173 3174 3178 3175 3176 3177 3178 3180 3181 3181 3184 3185 3183 3183 3185 3188 3189 3191 3196 3198 3201 3203 3206 3209 3212 3215 3217 3220 3223 3225 3228
3181 3181 3180 3180 3181 3184 3183 3183 3181 3180 3175 3175 3169 3170 3173 3175 3174 3173 3174 3174 3175 3176 3176 3177 3177 3180 3178 3178 3180 3183 3185 3189 3193 3196 3200 3202 3205 3208 3211 3214 3216 3218 3221 3224
3181 3181 3179 3179 3179 3179 3180 3180 3180 3178 3173 3167 3160 3167 3168 3168 3170 3171 3171 3170 3170 3171 3171 3172 3172 3171 3171 3171 3173 3176 3180 3183 3187 3191 3193 3197 3200 3203 3206 3209 3211 3214 3216 3219
3179 3180 3179 3178 3178 3178 3178 3177 3178 3176 3173 3165 3160 3160 3162 3165 3166 3165 3166 3165 3164 3164 3165 3165 3165 3164 3164 3164 3165 3167 3171 3175 3179 3183 3187 3191 3195 3198 3201 3203 3205 3208 3210 3213
3176 3177 3176 3176 3174 3172 3173 3174 3174 3171 3169 3169 3167 3163 3163 3162 3163 3162 3159 3160 3159 3156 3157 3157 3158 3157 3158 3158 3157 3160 3163 3167 3172 3176 3180 3185 3188 3191 3193 3196 3199 3201 3204 3206
3176 3174 3172 3170 3173 3169 3170 3171 3171 3170 3169 3165 3164 3158 3157 3160 3160 3158 3156 3155 3153 3151 3149 3150 3149 3149 3151 3151 3151 3153 3156 3160 3165 3169 3173 3177 3180 3184 3186 3189 3191 3194 3197 3200
3171 3171 3171 3167 3165 3168 3168 3168 3168 3168 3165 3160 3154 3156 3156 3157 3155 3152 3149 3148 3146 3144 3142 3141 3143 3144 3145 3145 3145 3145 3149 3153 3156 3161 3165 3169 3172 3176 3179 3182 3185 3187 3190 3192
3168 3167 3167 3165 3164 3164 3164 3163 3162 3161 3160 3158 3151 3150 3153 3153 3149 3145 3142 3140 3139 3136 3135 3134 3133 3135 3136 3136 3138 3137 3140 3144 3148 3151 3155 3159 3165 3169 3172 3174 3177 3180 3182 3184
3164 3163 3162 3160 3159 3158 3156 3156 3155 3154 3154 3150 3150 3144 3149 3147 3143 3141 3137 3134 3132 3130 3126 3126 3125 3126 3127 3128 3128 3130 3133 3135 3138 3142 3146 3152 3156 3159 3163 3167 3170 3172 3175 3177
3162 3161 3160 3156 3155 3155 3152 3148 3148 3147 3147 3147 3143 3142 3141 3138 3135 3133 3131 3127 3124 3123 3119 3117 3117 3117 3119 3120 3121 3122 3122 3118 3127 3133 3139 3143 3146 3149 3154 3158 3160 3163 3166 3168
3158 3158 3157 3154 3153 3148 3144 3145 3143 3142 3141 3140 3137 3135 3129 3127 3126 3124 3123 3120 3117 3114 3112 3110 3110 3109 3110 3111 3112 3114 3115 3118 3121 3123 3129 3134 3134 3137 3142 3146 3150 3155 3157 3158
3153 3155 3154 3152 3146 3143 3143 3140 3141 3139 3135 3135 3129 3125 3122 3118 3114 3117 3117 3109 3109 3107 3105 3102 3101 3101 3102 3103 3104 3106 3107 3111 3114 3119 3123 3119 3123 3128 3133 3137 3142 3145 3148 3150
3150 3149 3151 3149 3146 3140 3139 3139 3136 3135 3126 3127 3120 3117 3114 3111 3109 3111 3107 3105 3102 3100 3098 3095 3093 3093 3092 3094 3095 3097 3101 3105 3108 3111 3115 3114 3114 3117 3121 3127 3131 3132 3134 3138
3148 3148 3146 3143 3140 3138 3137 3133 3132 3131 3127 3118 3115 3111 3107 3104 3103 3097 3096 3096 3094 3091 3090 3087 3085 3084 3084 3084 3085 3088 3091 3094 3097 3102 3104 3105 3107 3110 3112 3116 3116 3112 3116 3126
3146 3144 3141 3139 3137 3134 3131 3131 3129 3123 3114 3110 3106 3102 3098 3096 3093 3090 3088 3086 3083 3081 3079 3078 3076 3076 3076 3077 3078 3080 3083 3085 3090 3092 3094 3098 3101 3101 3103 3106 3108 3103 3086 3114
3143 3141 3139 3139 3133 3130 3127 3124 3119 3111 3104 3100 3094 3090 3086 3082 3081 3081 3078 3077 3074 3070 3067 3066 3064 3065 3066 3068 3068 3071 3074 3077 3080 3084 3087 3090 3092 3094 3097 3099 3099 3100 3103 3102
3138 3134 3133 3133 3129 3126 3121 3116 3111 3103 3095 3089 3085 3081 3078 3074 3073 3073 3071 3069 3066 3062 3057 3054 3052 3053 3056 3060 3062 3064 3066 3070 3073 3077 3080 3082 3085 3085 3088 3089 3089 3093 3094 3095
3135 3131 3130 3127 3124 3120 3117 3111 3102 3094 3087 3081 3077 3075 3073 3070 3068 3066 3063 3062 3059 3055 3051 3043 3042 3044 3047 3053 3055 3057 3056 3062 3066 3070 3073 3077 3080 3083 3085 3087 3087 3086 3088 3089
3129 3128 3127 3123 3120 3115 3111 3104 3096 3089 3083 3079 3075 3072 3068 3064 3060 3058 3055 3052 3051 3048 3047 3040 3037 3037 3040 3035 3043 3039 3048 3056 3061 3065 3069 3073 3076 3078 3080 3081 3082 3083 3085 3088